Location: Unspecified
(43.4680°N, 87.1740°E)
Time: 09:35:58
(UTC+00:00)

SL-14 DEB - Visible Passes

Search period start: 01 December 2021 00:00
Search period end: 11 December 2021 00:00
Orbit: 939 x 969 km, 82.5° (Epoch: 30 November)

Date Brightness Start Highest point End Pass type
(mag) Time Alt. Az. Time Alt. Az. Time Alt. Az.
01 Dec ? 13:47:03 10° N 13:48:08 16° N 13:48:08 16° N visible
02 Dec ? 12:21:56 10° NNE 12:23:20 15° NNE 12:23:20 15° NNE visible
02 Dec ? 14:06:09 10° NNW 14:07:35 18° NNW 14:07:35 18° NNW visible
03 Dec ? 12:40:24 10° N 12:42:57 23° NNE 12:42:57 23° NNE visible
03 Dec ? 14:25:29 10° NNW 14:27:13 18° NW 14:27:13 18° NW visible
04 Dec ? 12:59:08 10° N 13:02:53 37° NNE 13:02:53 37° NNE visible
04 Dec ? 14:45:09 10° NW 14:47:11 17° NW 14:47:11 17° NW visible
05 Dec ? 00:44:32 10° ESE 00:48:10 16° E 00:51:48 10° NE visible
05 Dec ? 11:35:00 10° NNE 11:38:20 15° ENE 11:39:08 14° ENE visible
05 Dec ? 13:18:03 10° N 13:31:22 - S 13:23:31 72° N visible
05 Dec ? 15:05:36 10° NW 15:07:55 13° WNW 15:07:55 13° WNW visible
06 Dec ? 11:52:57 10° NNE 11:57:45 23° ENE 12:02:30 10° ESE visible
06 Dec ? 13:37:09 10° NNW 13:43:07 56° W 13:49:02 10° S visible
07 Dec ? 12:11:24 10° N 12:17:01 36° ENE 12:22:34 10° SE visible
07 Dec ? 13:56:28 10° NNW 14:01:55 35° W 14:07:20 10° SSW visible
08 Dec ? 12:30:07 10° N 12:36:09 57° ENE 12:42:08 10° SSE visible
08 Dec ? 14:16:07 10° NW 14:20:36 22° W 14:25:04 10° SW visible
09 Dec ? 00:15:36 10° ESE 00:19:09 16° E 00:22:44 10° NE visible
09 Dec ? 11:06:03 10° NNE 11:09:18 15° ENE 11:12:32 10° E visible
09 Dec ? 12:49:02 10° N 12:55:11 90° W 13:01:16 10° S visible
09 Dec ? 14:36:31 10° NW 14:39:11 13° WNW 14:41:50 10° WSW visible
10 Dec ? 00:32:49 10° SE 00:37:47 26° E 00:42:45 10° NNE visible
10 Dec ? 11:23:57 10° NNE 11:28:42 23° ENE 11:33:25 10° ESE visible
10 Dec ? 13:08:08 10° NNW 13:14:05 57° W 13:20:00 10° S visible
